DW8214 Weather Reports


time (UTC)temp
C
wind
direction
speed
KPH
gust
KPH
rain 1hr
cm
rain 24hr
cm
rain mn
cm
humidity
%
barometer
mb
20190617134557 21 194 1.6 16.1 0.00 0.00 0.00 62 1011.0
20190617133048 21 196 1.6 12.9 0.00 0.00 0.00 62 1011.0
20190617131629 21 221 1.6 12.9 0.00 0.00 0.00 61 1011.0
20190617130146 22 142 3.2 11.3 0.00 0.00 0.00 60 1011.0
20190617124605 22 143 3.2 8.0 0.00 0.00 0.00 61 1010.9
20190617123103 22 158 3.2 16.1 0.00 0.00 0.00 61 1011.1
20190617121620 22 134 4.8 16.1 0.00 0.00 0.00 59 1011.4
20190617120124 22 150 1.6 12.9 0.00 0.00 0.00 56 1011.3
20190617114544 22 166 0.0 12.9 0.00 0.00 0.00 60 1011.4
20190617113101 22 164 0.0 14.5 0.00 0.00 0.00 63 1011.5
20190617111632 22 125 3.2 11.3 0.00 0.00 0.00 62 1011.5
20190617110049 22 130 1.6 11.3 0.00 0.00 0.00 61 1011.5
20190617104535 22 146 1.6 17.7 0.00 0.00 0.00 60 1011.6
20190617103023 22 140 0.0 16.1 0.00 0.00 0.00 61 1011.7
20190617101515 22 165 3.2 14.5 0.00 0.00 0.00 62 1011.5
20190617100010 22 148 3.2 16.1 0.00 0.00 0.00 61 1011.5
20190617094506 22 144 0.0 12.9 0.00 0.00 0.00 60 1011.3
20190617093142 22 177 3.2 12.9 0.00 0.00 0.00 56 1011.1
20190617091641 22 132 0.0 8.0 0.00 0.00 0.00 52 1011.1
20190617090204 22 143 0.0 8.0 0.00 0.00 0.00 53 1011.1
20190617084701 22 147 1.6 9.7 0.00 0.00 0.00 52 1011.2
20190617083201 21 91 0.0 3.2 0.00 0.00 0.00 54 1011.2
20190617081632 21 54 0.0 9.7 0.00 0.00 0.00 55 1011.3
20190617080105 20 58 1.6 9.7 0.00 0.00 0.00 58 1011.1
20190617074602 20 113 0.0 0.0 0.00 0.00 0.00 62 1010.9
20190617073042 19 134 0.0 0.0 0.00 0.00 0.00 68 1011.2
20190617071525 18 47 0.0 0.0 0.00 0.00 0.00 70 1011.5
20190617070023 17 46 0.0 0.0 0.00 0.00 0.00 70 1011.7
20190617064521 16 46 0.0 0.0 0.00 0.00 0.00 70 1011.6
20190617063035 16 46 0.0 0.0 0.00 0.00 0.00 71 1011.2
20190617061514 15 46 0.0 0.0 0.00 0.00 0.00 70 1011.2
20190617054718 14 51 0.0 1.6 0.00 0.00 0.00 70 1011.0
20190617053125 14 51 0.0 0.0 0.00 0.00 0.00 68 1010.9
20190617051620 14 51 0.0 0.0 0.00 0.00 0.00 68 1011.1
20190617050127 13 51 0.0 4.8 0.00 0.00 0.00 69 1011.0
20190617044732 13 51 0.0 0.0 0.00 0.00 0.00 68 1010.9
20190617043113 13 51 0.0 0.0 0.00 0.00 0.00 66 1010.9
20190617041700 13 51 0.0 0.0 0.00 0.00 0.00 66 1010.8
20190617040230 13 51 0.0 0.0 0.00 0.00 0.00 64 1010.8
20190617034610 14 51 0.0 0.0 0.00 0.00 0.00 63 1011.0
20190617033142 14 51 0.0 0.0 0.00 0.00 0.00 62 1010.8
20190617031619 14 51 0.0 0.0 0.00 0.00 0.00 62 1011.0
20190617030202 14 51 0.0 0.0 0.00 0.00 0.00 65 1011.1
20190617024705 15 51 0.0 0.0 0.00 0.00 0.00 65 1011.3
20190617023048 15 51 0.0 0.0 0.00 0.00 0.00 64 1011.4
20190617021621 15 51 0.0 0.0 0.00 0.00 0.00 63 1011.5
20190617020051 16 51 0.0 0.0 0.00 0.00 0.00 63 1011.6
20190617014551 16 12 0.0 0.0 0.00 0.00 0.00 63 1011.7
20190617013105 15 11 0.0 3.2 0.00 0.00 0.00 63 1011.5
20190617011551 15 20 0.0 0.0 0.00 0.00 0.00 62 1011.7
20190617010137 15 20 0.0 3.2 0.00 0.00 0.00 62 1011.8
20190617004700 15 23 0.0 8.0 0.00 0.00 0.00 63 1011.7
20190617003106 15 355 0.0 4.8 0.00 0.00 0.00 63 1011.9
20190617001543 16 360 0.0 6.4 0.00 0.00 0.00 63 1011.9
20190617000058 16 26 0.0 0.0 0.00 0.00 0.00 62 1012.0
20190616234537 16 26 0.0 0.0 0.00 0.00 0.00 62 1012.1
20190616233056 16 26 0.0 0.0 0.00 0.00 0.00 61 1012.2
20190616231607 17 26 0.0 0.0 0.00 0.00 0.00 60 1012.3
20190616230046 17 26 0.0 0.0 0.00 0.00 0.00 59 1012.4
20190616224515 17 26 0.0 0.0 0.00 0.00 0.00 58 1012.4
20190616223014 17 26 0.0 0.0 0.00 0.00 0.00 57 1012.3
20190616221539 18 355 0.0 0.0 0.00 0.00 0.00 57 1012.3
20190616220105 18 355 0.0 0.0 0.00 0.00 0.00 57 1012.3
20190616214515 18 355 0.0 1.6 0.00 0.00 0.00 55 1012.4
20190616213032 18 19 0.0 6.4 0.00 0.00 0.00 55 1012.3
20190616211515 19 337 0.0 9.7 0.00 0.00 0.00 56 1012.2
20190616210015 20 355 0.0 3.2 0.00 0.00 0.00 55 1012.1
20190616204520 20 360 0.0 0.0 0.00 0.00 0.00 53 1012.1
20190616203013 21 5 0.0 4.8 0.00 0.00 0.00 53 1011.8
20190616201515 21 344 0.0 0.0 0.00 0.00 0.00 51 1011.6
20190616200014 21 317 0.0 0.0 0.00 0.00 0.00 49 1011.5
20190616194510 22 316 0.0 0.0 0.00 0.00 0.00 49 1011.4
20190616193005 22 296 0.0 1.6 0.00 0.00 0.00 49 1011.4
20190616191510 22 244 0.0 6.4 0.00 0.00 0.00 47 1011.3
20190616190014 22 181 1.6 12.9 0.00 0.00 0.00 47 1011.2
20190616184512 23 257 1.6 8.0 0.00 0.00 0.00 45 1011.1
20190616183003 23 250 0.0 8.0 0.00 0.00 0.00 43 1011.1
20190616181502 23 192 0.0 11.3 0.00 0.00 0.00 42 1011.1
20190616180002 24 167 1.6 11.3 0.00 0.00 0.00 40 1011.2
20190616174501 24 194 1.6 9.7 0.00 0.00 0.00 40 1011.2
20190616173002 25 246 1.6 11.3 0.00 0.00 0.00 39 1011.3
20190616171706 25 227 1.6 14.5 0.00 0.00 0.00 41 1011.2
20190616170152 25 194 3.2 16.1 0.00 0.00 0.00 41 1011.2
20190616164644 25 173 1.6 9.7 0.00 0.00 0.00 43 1011.2
20190616163229 25 207 3.2 11.3 0.00 0.00 0.00 44 1011.3
20190616161636 25 180 1.6 14.5 0.00 0.00 0.00 43 1011.4
20190616160158 25 222 1.6 12.9 0.00 0.00 0.00 40 1011.4
20190616154606 26 178 3.2 12.9 0.00 0.00 0.00 41 1011.5
20190616153115 26 200 0.0 9.7 0.00 0.00 0.00 44 1011.6
20190616151725 25 219 1.6 16.1 0.00 0.00 0.00 45 1011.7
20190616150144 26 211 3.2 12.9 0.00 0.00 0.00 45 1011.8
20190616144653 26 197 0.0 11.3 0.00 0.00 0.00 46 1011.7
20190616143117 25 303 1.6 11.3 0.00 0.00 0.00 47 1011.9
20190616141639 25 196 4.8 14.5 0.00 0.00 0.00 48 1011.9
20190616140137 25 208 3.2 20.9 0.00 0.00 0.00 48 1011.7